Location: Domont
(49.0278°N, 2.3264°E)
Time: 13:46:27
(UTC+00:00)

USA 215 - Pass Details

Date: 16 October 2021
Orbit: 1099 x 1109 km, 123.0° (Epoch: 20 November)

Event Time Altitude Azimuth Distance (km) Brightness Sun altitude
Exits shadow 19:42:15 37° 45° (NE) 1,648 3.9 -27.3°
Maximum altitude 19:44:04 45° 6° (N) 1,460 3.9 -27.6°
Drops below altitude 10° 19:50:13 10° 296° (WNW) 2,967 6.5 -28.6°
Sets 19:52:48 0° 290° (WNW) 3,927 7.4 -29.0°
